• în România
  • Lista ţărilor
  • Pe 7 zile
  • Temperatura apei
  • Hartă satelitară
  • Meteo pe hartă
  • Widget-uri
  • user-avatar
    Intrare

    Meteo pe oră la Kalgoorlie

    Astăzi, 21 Noiembrie, Marţi

    Timp Temperatura Precipitaţii Vânt Presiune Umiditate
    00:00 +24°C° 0 mm 8 m/s 725 mmHg 51%
    01:00 +22°C° 0 mm 8 m/s 725 mmHg 57%
    02:00 +21°C° 0 mm 8 m/s 726 mmHg 62%
    03:00 +21°C° 0 mm 8 m/s 726 mmHg 65%
    04:00 +20°C° 0 mm 8 m/s 726 mmHg 67%
    05:00 +20°C° 0 mm 8 m/s 726 mmHg 69%
    06:00 +21°C° 0 mm 8 m/s 727 mmHg 65%
    07:00 +22°C° 0 mm 8 m/s 727 mmHg 61%
    08:00 +22°C° 0 mm 7 m/s 728 mmHg 61%
    09:00 +23°C° 0 mm 7 m/s 728 mmHg 54%
    10:00 +26°C° 0 mm 6 m/s 728 mmHg 48%
    11:00 +28°C° 0 mm 6 m/s 728 mmHg 41%
    12:00 +28°C° 0 mm 7 m/s 728 mmHg 40%
    13:00 +28°C° 0 mm 8 m/s 728 mmHg 39%
    14:00 +28°C° 0 mm 9 m/s 728 mmHg 38%
    15:00 +27°C° 0 mm 10 m/s 728 mmHg 41%
    16:00 +26°C° 0 mm 10 m/s 729 mmHg 44%
    17:00 +23°C° 0 mm 11 m/s 729 mmHg 46%
    18:00 +22°C° 0 mm 11 m/s 730 mmHg 48%
    19:00 +19°C° 0 mm 11 m/s 730 mmHg 50%
    20:00 +17°C° 0 mm 10 m/s 731 mmHg 51%
    21:00 +16°C° 0 mm 10 m/s 731 mmHg 52%
    22:00 +15°C° 0 mm 9 m/s 732 mmHg 53%
    23:00 +13°C° 0 mm 8 m/s 732 mmHg 53%

    Mâine, 22 Noiembrie, Miercuri

    Timp Temperatura Precipitaţii Vânt Presiune Umiditate
    00:00 +12°C° 0 mm 8 m/s 732 mmHg 55%
    01:00 +12°C° 0 mm 8 m/s 732 mmHg 57%
    02:00 +11°C° 0 mm 7 m/s 732 mmHg 58%
    03:00 +10°C° 0 mm 7 m/s 732 mmHg 62%
    04:00 +10°C° 0 mm 7 m/s 732 mmHg 65%
    05:00 +10°C° 0 mm 6 m/s 732 mmHg 69%
    06:00 +11°C° 0 mm 7 m/s 732 mmHg 61%
    07:00 +14°C° 0 mm 7 m/s 732 mmHg 53%
    08:00 +15°C° 0 mm 7 m/s 732 mmHg 45%
    09:00 +17°C° 0 mm 7 m/s 732 mmHg 37%
    10:00 +21°C° 0 mm 7 m/s 732 mmHg 29%
    11:00 +23°C° 0 mm 7 m/s 731 mmHg 21%
    12:00 +24°C° 0 mm 7 m/s 731 mmHg 19%
    13:00 +27°C° 0 mm 7 m/s 730 mmHg 17%
    14:00 +28°C° 0 mm 6 m/s 730 mmHg 15%
    15:00 +28°C° 0 mm 7 m/s 730 mmHg 15%
    16:00 +28°C° 0 mm 7 m/s 730 mmHg 15%
    17:00 +28°C° 0 mm 7 m/s 730 mmHg 16%
    18:00 +27°C° 0 mm 7 m/s 730 mmHg 19%
    19:00 +24°C° 0 mm 7 m/s 731 mmHg 23%
    20:00 +23°C° 0 mm 7 m/s 731 mmHg 26%
    21:00 +21°C° 0 mm 7 m/s 731 mmHg 33%
    22:00 +20°C° 0 mm 7 m/s 732 mmHg 40%
    23:00 +17°C° 0 mm 8 m/s 732 mmHg 47%

    Poimâine, 23 Noiembrie, Joi

    Timp Temperatura Precipitaţii Vânt Presiune Umiditate
    00:00 +16°C° 0 mm 7 m/s 732 mmHg 52%
    01:00 +15°C° 0 mm 6 m/s 732 mmHg 58%
    02:00 +14°C° 0 mm 6 m/s 731 mmHg 63%
    03:00 +14°C° 0 mm 6 m/s 731 mmHg 65%
    04:00 +13°C° 0 mm 5 m/s 732 mmHg 67%
    05:00 +12°C° 0 mm 5 m/s 732 mmHg 70%
    06:00 +14°C° 0 mm 5 m/s 732 mmHg 62%
    07:00 +15°C° 0 mm 5 m/s 732 mmHg 55%
    08:00 +16°C° 0 mm 5 m/s 732 mmHg 47%
    09:00 +19°C° 0 mm 5 m/s 732 mmHg 39%
    10:00 +21°C° 0 mm 5 m/s 732 mmHg 31%
    11:00 +23°C° 0 mm 5 m/s 731 mmHg 24%
    12:00 +26°C° 0 mm 5 m/s 731 mmHg 21%
    13:00 +27°C° 0 mm 5 m/s 730 mmHg 18%
    14:00 +28°C° 0 mm 5 m/s 729 mmHg 16%
    15:00 +29°C° 0 mm 5 m/s 729 mmHg 16%
    16:00 +29°C° 0 mm 5 m/s 729 mmHg 16%
    17:00 +29°C° 0 mm 5 m/s 728 mmHg 15%
    18:00 +28°C° 0 mm 5 m/s 729 mmHg 18%
    19:00 +26°C° 0 mm 5 m/s 729 mmHg 20%
    20:00 +25°C° 0 mm 5 m/s 729 mmHg 23%
    21:00 +23°C° 0 mm 6 m/s 730 mmHg 27%
    22:00 +22°C° 0 mm 7 m/s 730 mmHg 31%
    23:00 +21°C° 0 mm 7 m/s 730 mmHg 35%

    24 Noiembrie, Vineri

    Timp Temperatura Precipitaţii Vânt Presiune Umiditate
    00:00 +20°C° 0 mm 7 m/s 730 mmHg 38%
    01:00 +19°C° 0 mm 6 m/s 729 mmHg 41%
    02:00 +17°C° 0 mm 6 m/s 729 mmHg 44%
    03:00 +17°C° 0 mm 6 m/s 729 mmHg 48%
    04:00 +16°C° 0 mm 6 m/s 729 mmHg 52%
    05:00 +15°C° 0 mm 6 m/s 729 mmHg 56%
    06:00 +17°C° 0 mm 6 m/s 729 mmHg 51%
    07:00 +20°C° 0 mm 6 m/s 730 mmHg 47%
    08:00 +21°C° 0 mm 6 m/s 730 mmHg 42%
    09:00 +23°C° 0 mm 6 m/s 729 mmHg 35%
    10:00 +26°C° 0 mm 5 m/s 729 mmHg 29%
    11:00 +28°C° 0 mm 5 m/s 729 mmHg 22%
    12:00 +29°C° 0 mm 4 m/s 728 mmHg 19%
    13:00 +30°C° 0 mm 4 m/s 728 mmHg 17%
    14:00 +31°C° 0 mm 3 m/s 727 mmHg 14%
    15:00 +31°C° 0 mm 3 m/s 727 mmHg 14%
    16:00 +31°C° 0 mm 3 m/s 726 mmHg 13%
    17:00 +31°C° 0 mm 2 m/s 726 mmHg 13%
    18:00 +30°C° 0 mm 3 m/s 726 mmHg 13%
    19:00 +30°C° 0 mm 4 m/s 727 mmHg 13%
    20:00 +29°C° 0 mm 4 m/s 727 mmHg 14%
    21:00 +28°C° 0 mm 5 m/s 726 mmHg 14%
    22:00 +28°C° 0 mm 6 m/s 726 mmHg 14%
    23:00 +27°C° 0 mm 7 m/s 726 mmHg 14%

    25 Noiembrie, Sâmbătă

    Timp Temperatura Precipitaţii Vânt Presiune Umiditate
    00:00 +27°C° 0 mm 7 m/s 725 mmHg 15%
    01:00 +26°C° 0 mm 7 m/s 725 mmHg 17%
    02:00 +24°C° 0 mm 7 m/s 724 mmHg 18%
    03:00 +24°C° 0 mm 6 m/s 724 mmHg 20%
    04:00 +23°C° 0 mm 6 m/s 725 mmHg 22%
    05:00 +22°C° 0 mm 5 m/s 725 mmHg 24%
    06:00 +24°C° 0 mm 6 m/s 725 mmHg 22%
    07:00 +27°C° 0 mm 7 m/s 726 mmHg 20%
    08:00 +29°C° 0 mm 7 m/s 726 mmHg 19%
    09:00 +32°C° 0 mm 7 m/s 726 mmHg 17%
    10:00 +34°C° 0 mm 6 m/s 725 mmHg 15%
    11:00 +36°C° 0 mm 6 m/s 725 mmHg 13%
    12:00 +37°C° 0 mm 5 m/s 724 mmHg 12%
    13:00 +37°C° 0 mm 4 m/s 724 mmHg 11%
    14:00 +38°C° 0 mm 3 m/s 723 mmHg 10%
    15:00 +38°C° 0 mm 3 m/s 723 mmHg 11%
    16:00 +37°C° 0 mm 3 m/s 723 mmHg 11%
    17:00 +37°C° 0 mm 3 m/s 723 mmHg 11%
    18:00 +36°C° 0 mm 5 m/s 723 mmHg 13%
    19:00 +35°C° 0 mm 6 m/s 724 mmHg 16%
    20:00 +33°C° 0 mm 8 m/s 724 mmHg 18%
    21:00 +31°C° 0 mm 9 m/s 725 mmHg 24%
    22:00 +28°C° 0 mm 9 m/s 725 mmHg 30%
    23:00 +26°C° 0 mm 10 m/s 725 mmHg 35%

    26 Noiembrie, Duminică

    Timp Temperatura Precipitaţii Vânt Presiune Umiditate
    00:00 +24°C° 0 mm 9 m/s 725 mmHg 39%
    01:00 +23°C° 0 mm 9 m/s 725 mmHg 43%
    02:00 +22°C° 0 mm 8 m/s 725 mmHg 47%
    03:00 +21°C° 0 mm 8 m/s 725 mmHg 51%
    04:00 +20°C° 0 mm 7 m/s 725 mmHg 55%
    05:00 +20°C° 0 mm 7 m/s 725 mmHg 60%
    06:00 +22°C° 0 mm 7 m/s 726 mmHg 53%
    07:00 +23°C° 0 mm 7 m/s 726 mmHg 45%
    08:00 +26°C° 0 mm 7 m/s 726 mmHg 38%
    09:00 +29°C° 0 mm 7 m/s 726 mmHg 31%
    10:00 +33°C° 0 mm 7 m/s 726 mmHg 24%
    11:00 +35°C° 0 mm 7 m/s 726 mmHg 17%
    12:00 +36°C° 0 mm 7 m/s 725 mmHg 15%
    13:00 +38°C° 0 mm 7 m/s 724 mmHg 14%
    14:00 +39°C° 0 mm 7 m/s 724 mmHg 12%
    15:00 +39°C° 0 mm 7 m/s 723 mmHg 12%
    16:00 +39°C° 0 mm 8 m/s 723 mmHg 12%
    17:00 +38°C° 0 mm 8 m/s 723 mmHg 12%
    18:00 +37°C° 0 mm 8 m/s 723 mmHg 13%
    19:00 +35°C° 0 mm 8 m/s 723 mmHg 14%
    20:00 +34°C° 0 mm 7 m/s 724 mmHg 15%
    21:00 +32°C° 0 mm 9 m/s 724 mmHg 18%
    22:00 +31°C° 0 mm 10 m/s 724 mmHg 20%
    23:00 +29°C° 0 mm 11 m/s 724 mmHg 23%
    Arată mai mult